Location: Kerguer�zec
(48.4509°N, 4.7600°W)
Time: 22:05:59
(UTC+00:00)

USA 234 - Pass Details

Date: 09 April 2020
Orbit: 1102 x 1106 km, 123.0° (Epoch: 14 May)

Event Time Altitude Azimuth Distance (km) Brightness Sun altitude
Rises 19:53:32 0° 63° (ENE) 3,925 5.8 -9.0°
Reaches altitude 10° 19:57:03 10° 82° (E) 2,964 5.0 -9.5°
Maximum altitude 20:01:10 17° 122° (ESE) 2,451 4.5 -10.1°
Drops below altitude 10° 20:05:16 10° 161° (SSE) 2,955 5.1 -10.7°
Sets 20:08:45 0° 181° (S) 3,908 5.9 -11.3°
